SP01 weather

Güeppi­ Airport
Loreto Region, Perú

Public forecast

Using degrees Celsius for public forecast. Weather courtesy of forecast.io.

METAR (pilot weather report)

Report is more than 6 hours old.

Closest report is Tres De Mayo Airport, 84.0 nm (155.7 km) WNW. Retrieved 2019/05/01 02:00 UTC (20 days ago):

SKAS 010200Z 00000KT 9999 SCT080 25/24 A2986

TAF (pilot weather forecast)

Forecast is more than 12 hours old.

Closest forecast is Nueva Loja Airport, 98.1 nm (181.6 km) W. Retrieved 2018/09/09 12:03 UTC (8 months ago):

TAF TAF SCDA 091040Z 0912/1012 19004KT 9999 OVC020 TX18/0917Z TN16/1006ZLVA0571 091200 GG EBBRYZYX EBBRYZYZ EGGYYBYA KMKMYTYX KWBCYMYX MPLBYFYX MPTOYMYX 091200 SEQUYZYX SAEQ01 SEQU 091200 RRB METAR SENL 091200Z 36002KT 9999 SCT030 BKN100 22/21 Q1013 RMK A2994